Time,TemperatureF,DewpointF,PressureIn,WindDirection,WindDirectionDegrees,WindSpeedMPH,WindSpeedGustMPH,Humidity,HourlyPrecipIn,Conditions,Clouds,dailyrainin,SoftwareType,DateUTC
2013-02-18 00:10:00,35.4,29.8,30.10,NNE,22,0.0,0.0,80,0.00,,,0.00,open2300-1.11,2013-02-18 08:10:00,
2013-02-18 00:20:00,35.4,30.1,30.10,NNE,22,0.0,0.0,81,0.00,,,0.00,open2300-1.11,2013-02-18 08:20:00,
2013-02-18 00:30:00,35.2,30.0,30.10,NNE,22,0.0,0.0,81,0.00,,,0.00,open2300-1.11,2013-02-18 08:30:00,
2013-02-18 00:40:00,35.2,30.0,30.09,NNE,22,0.0,0.0,81,0.00,,,0.00,open2300-1.11,2013-02-18 08:40:00,
2013-02-18 00:50:00,35.2,30.0,30.09,NNE,22,0.0,0.0,81,0.00,,,0.00,open2300-1.11,2013-02-18 08:50:00,
2013-02-18 01:01:00,34.9,29.6,30.08,NNE,22,0.0,0.0,81,0.00,,,0.00,open2300-1.11,2013-02-18 09:01:00,
2013-02-18 01:10:00,34.5,29.2,30.08,NNE,22,0.0,0.0,81,0.00,,,0.00,open2300-1.11,2013-02-18 09:10:00,
2013-02-18 01:20:00,34.3,29.0,30.07,NNE,22,0.0,0.0,81,0.00,,,0.00,open2300-1.11,2013-02-18 09:20:00,
2013-02-18 01:30:00,34.0,28.7,30.07,NNE,22,0.0,0.0,81,0.00,,,0.00,open2300-1.11,2013-02-18 09:30:00,
2013-02-18 01:40:00,33.6,28.6,30.07,NNE,22,0.0,0.0,82,0.00,,,0.00,open2300-1.11,2013-02-18 09:40:00,
2013-02-18 01:50:00,33.4,28.5,30.07,NNE,22,0.0,0.0,82,0.00,,,0.00,open2300-1.11,2013-02-18 09:50:00,
2013-02-18 02:10:00,32.7,27.8,30.07,NNE,22,0.0,0.0,82,0.00,,,0.00,open2300-1.11,2013-02-18 10:10:00,
2013-02-18 02:20:00,32.5,28.0,30.07,WNW,292,0.0,0.0,83,0.00,,,0.00,open2300-1.11,2013-02-18 10:20:00,
2013-02-18 02:30:00,32.5,28.0,30.07,WNW,292,0.0,0.0,83,0.00,,,0.00,open2300-1.11,2013-02-18 10:30:00,
2013-02-18 02:40:00,32.5,28.0,30.06,WNW,292,0.0,0.0,83,0.00,,,0.00,open2300-1.11,2013-02-18 10:40:00,
2013-02-18 02:50:00,32.4,28.1,30.05,WNW,292,0.0,0.0,84,0.00,,,0.00,open2300-1.11,2013-02-18 10:50:00,
2013-02-18 03:10:00,32.7,28.4,30.05,WNW,292,0.0,0.0,84,0.00,,,0.00,open2300-1.11,2013-02-18 11:10:00,
2013-02-18 03:20:00,32.7,28.4,30.05,WNW,292,0.0,0.0,84,0.00,,,0.00,open2300-1.11,2013-02-18 11:20:00,
2013-02-18 03:40:00,33.8,29.7,30.05,NW,315,0.0,0.0,85,0.00,,,0.00,open2300-1.11,2013-02-18 11:40:00,
2013-02-18 03:50:00,34.0,29.8,30.05,NW,315,0.0,0.0,85,0.00,,,0.00,open2300-1.11,2013-02-18 11:50:00,
2013-02-18 04:10:00,33.4,29.3,30.03,East,90,0.0,0.0,85,0.00,,,0.00,open2300-1.11,2013-02-18 12:10:00,
2013-02-18 04:20:00,33.3,29.2,30.02,ESE,112,0.0,1.1,85,0.00,,,0.00,open2300-1.11,2013-02-18 12:20:00,
2013-02-18 04:30:00,32.9,28.9,30.02,ESE,112,0.0,0.0,85,0.00,,,0.00,open2300-1.11,2013-02-18 12:30:00,
2013-02-18 04:40:00,32.9,28.9,30.02,ESE,112,0.0,0.0,85,0.00,,,0.00,open2300-1.11,2013-02-18 12:40:00,
2013-02-18 04:50:00,32.7,28.7,30.03,ESE,112,0.0,0.0,85,0.00,,,0.00,open2300-1.11,2013-02-18 12:50:00,
2013-02-18 05:10:00,32.4,28.1,30.03,ESE,112,0.0,0.0,84,0.00,,,0.00,open2300-1.11,2013-02-18 13:10:00,
2013-02-18 05:20:00,32.2,27.9,30.03,ESE,112,0.0,0.0,84,0.00,,,0.00,open2300-1.11,2013-02-18 13:20:00,
2013-02-18 05:30:00,32.2,28.2,30.03,ESE,112,0.0,0.0,85,0.00,,,0.00,open2300-1.11,2013-02-18 13:30:00,
2013-02-18 05:40:00,31.8,27.9,30.03,ESE,112,0.0,0.0,85,0.00,,,0.00,open2300-1.11,2013-02-18 13:40:00,
2013-02-18 05:50:00,31.8,27.9,30.04,ESE,112,0.0,0.0,85,0.00,,,0.00,open2300-1.11,2013-02-18 13:50:00,
2013-02-18 06:00:00,31.8,27.9,30.04,ESE,112,0.0,0.0,85,0.00,,,0.00,open2300-1.11,2013-02-18 14:00:00,
2013-02-18 06:10:00,31.8,27.9,30.04,ESE,112,0.0,0.0,85,0.00,,,0.00,open2300-1.11,2013-02-18 14:10:00,
2013-02-18 06:20:00,31.8,27.9,30.04,ESE,112,0.0,0.0,85,0.00,,,0.00,open2300-1.11,2013-02-18 14:20:00,
2013-02-18 06:30:00,31.8,27.9,30.04,ESE,112,0.0,0.0,85,0.00,,,0.00,open2300-1.11,2013-02-18 14:30:00,
2013-02-18 06:40:00,31.8,27.9,30.04,ESE,112,0.0,0.0,85,0.00,,,0.00,open2300-1.11,2013-02-18 14:40:00,
2013-02-18 06:50:00,31.8,27.9,30.03,ESE,112,0.0,0.0,85,0.00,,,0.00,open2300-1.11,2013-02-18 14:50:00,
2013-02-18 07:00:00,31.8,28.1,30.03,ESE,112,0.0,0.0,86,0.00,,,0.00,open2300-1.11,2013-02-18 15:00:00,
2013-02-18 07:10:00,32.0,28.3,30.03,ESE,112,0.0,0.0,86,0.00,,,0.00,open2300-1.11,2013-02-18 15:10:00,
2013-02-18 07:20:00,32.2,28.5,30.04,ESE,112,0.0,0.0,86,0.00,,,0.00,open2300-1.11,2013-02-18 15:20:00,
2013-02-18 07:30:00,32.2,28.5,30.04,ESE,112,0.0,0.0,86,0.00,,,0.00,open2300-1.11,2013-02-18 15:30:00,
2013-02-18 07:40:00,32.4,28.6,30.05,ESE,112,0.0,0.0,86,0.00,,,0.00,open2300-1.11,2013-02-18 15:40:00,
2013-02-18 07:50:00,32.7,29.3,30.05,ESE,112,0.0,0.0,87,0.00,,,0.00,open2300-1.11,2013-02-18 15:50:00,
2013-02-18 08:00:00,33.3,29.8,30.05,SE,135,0.0,0.0,87,0.00,,,0.00,open2300-1.11,2013-02-18 16:00:00,
2013-02-18 08:10:00,33.6,30.1,30.05,SE,135,0.0,0.0,87,0.00,,,0.00,open2300-1.11,2013-02-18 16:10:00,
2013-02-18 08:20:00,34.2,30.6,30.04,SE,135,0.0,0.0,87,0.00,,,0.00,open2300-1.11,2013-02-18 16:20:00,
2013-02-18 08:30:00,34.5,31.0,30.05,SSE,157,0.0,0.0,87,0.00,,,0.00,open2300-1.11,2013-02-18 16:30:00,
2013-02-18 08:40:00,35.2,31.7,30.05,SE,135,0.0,0.0,87,0.00,,,0.00,open2300-1.11,2013-02-18 16:40:00,
2013-02-18 08:50:00,35.8,32.2,30.04,SE,135,0.0,0.0,87,0.00,,,0.00,open2300-1.11,2013-02-18 16:50:00,
2013-02-18 09:00:00,36.5,32.9,30.04,SE,135,0.0,1.8,87,0.00,,,0.00,open2300-1.11,2013-02-18 17:00:00,
2013-02-18 09:10:00,37.4,33.8,30.05,SSE,157,0.0,0.0,87,0.00,,,0.00,open2300-1.11,2013-02-18 17:10:00,
2013-02-18 09:20:00,38.3,34.5,30.05,SE,135,0.0,3.4,86,0.00,,,0.00,open2300-1.11,2013-02-18 17:20:00,
2013-02-18 09:30:00,38.8,34.7,30.05,SSE,157,0.0,2.7,85,0.00,,,0.00,open2300-1.11,2013-02-18 17:30:00,
2013-02-18 09:40:00,39.4,34.9,30.05,South,180,0.0,2.5,84,0.00,,,0.00,open2300-1.11,2013-02-18 17:40:00,
2013-02-18 09:50:00,39.9,35.4,30.05,SE,135,0.0,3.6,84,0.00,,,0.00,open2300-1.11,2013-02-18 17:50:00,
2013-02-18 10:00:00,40.8,36.0,30.05,SSW,202,0.0,4.7,83,0.00,,,0.00,open2300-1.11,2013-02-18 18:00:00,
2013-02-18 10:10:00,41.4,35.9,30.05,South,180,5.8,7.4,81,0.00,,,0.00,open2300-1.11,2013-02-18 18:10:00,
2013-02-18 10:20:00,41.5,35.8,30.04,SSW,202,0.0,6.9,80,0.00,,,0.00,open2300-1.11,2013-02-18 18:20:00,
2013-02-18 10:30:00,41.9,35.8,30.04,SSW,202,0.0,6.3,79,0.00,,,0.00,open2300-1.11,2013-02-18 18:30:00,
2013-02-18 10:40:00,42.4,36.0,30.03,South,180,0.0,6.7,78,0.00,,,0.00,open2300-1.11,2013-02-18 18:40:00,
2013-02-18 10:50:00,43.0,36.5,30.03,SE,135,4.2,8.1,78,0.00,,,0.00,open2300-1.11,2013-02-18 18:50:00,
2013-02-18 11:00:00,43.3,36.6,30.03,South,180,3.1,7.4,77,0.00,,,0.00,open2300-1.11,2013-02-18 19:00:00,
2013-02-18 11:10:00,44.2,37.5,30.03,SSE,157,0.0,7.6,77,0.00,,,0.00,open2300-1.11,2013-02-18 19:10:00,
2013-02-18 11:20:00,44.8,37.3,30.02,SSW,202,8.5,11.0,75,0.00,,,0.00,open2300-1.11,2013-02-18 19:20:00,
2013-02-18 11:30:00,45.0,37.5,30.02,South,180,6.5,9.2,75,0.00,,,0.00,open2300-1.11,2013-02-18 19:30:00,
2013-02-18 11:40:00,45.1,37.2,30.02,SSW,202,0.0,8.9,74,0.00,,,0.00,open2300-1.11,2013-02-18 19:40:00,
2013-02-18 11:50:00,45.3,37.5,30.01,South,180,0.0,7.6,74,0.00,,,0.00,open2300-1.11,2013-02-18 19:50:00,
2013-02-18 12:00:00,45.9,37.4,30.01,SSE,157,7.6,9.8,72,0.00,,,0.00,open2300-1.11,2013-02-18 20:00:00,
2013-02-18 12:10:00,46.0,37.2,30.01,SE,135,5.6,8.5,71,0.00,,,0.00,open2300-1.11,2013-02-18 20:10:00,
2013-02-18 12:20:00,46.4,37.6,30.00,SSW,202,0.0,8.3,71,0.00,,,0.00,open2300-1.11,2013-02-18 20:20:00,
2013-02-18 12:30:00,46.8,37.5,30.00,SSW,202,6.0,10.3,70,0.00,,,0.00,open2300-1.11,2013-02-18 20:30:00,
2013-02-18 12:40:00,47.3,37.3,29.99,South,180,6.7,12.3,68,0.00,,,0.00,open2300-1.11,2013-02-18 20:40:00,
2013-02-18 12:50:00,47.5,37.0,29.99,SSE,157,6.5,10.3,67,0.00,,,0.00,open2300-1.11,2013-02-18 20:50:00,
2013-02-18 13:00:00,47.8,37.4,29.98,South,180,6.3,8.9,67,0.00,,,0.00,open2300-1.11,2013-02-18 21:00:00,
2013-02-18 13:10:00,48.0,37.2,29.98,South,180,0.0,9.4,66,0.00,,,0.00,open2300-1.11,2013-02-18 21:10:00,
2013-02-18 13:20:00,48.4,37.1,29.97,SSW,202,0.0,10.7,65,0.00,,,0.00,open2300-1.11,2013-02-18 21:20:00,
2013-02-18 13:30:00,48.7,37.1,29.97,SSE,157,0.0,7.8,64,0.00,,,0.00,open2300-1.11,2013-02-18 21:30:00,
2013-02-18 13:40:00,49.3,37.6,29.97,SSW,202,5.4,8.3,64,0.00,,,0.00,open2300-1.11,2013-02-18 21:40:00,
2013-02-18 13:50:00,49.8,37.3,29.96,SSE,157,6.5,13.2,62,0.00,,,0.00,open2300-1.11,2013-02-18 21:50:00,
2013-02-18 14:00:00,49.8,36.9,29.96,SSE,157,0.0,8.7,61,0.00,,,0.00,open2300-1.11,2013-02-18 22:00:00,
2013-02-18 14:10:00,50.0,37.1,29.96,South,180,8.9,8.9,61,0.00,,,0.00,open2300-1.11,2013-02-18 22:10:00,
2013-02-18 14:20:00,50.4,37.4,29.95,South,180,0.0,9.2,61,0.00,,,0.00,open2300-1.11,2013-02-18 22:20:00,
2013-02-18 14:30:00,50.4,37.4,29.95,South,180,6.5,9.4,61,0.00,,,0.00,open2300-1.11,2013-02-18 22:30:00,
2013-02-18 14:40:00,50.2,36.8,29.95,South,180,6.7,10.7,60,0.00,,,0.00,open2300-1.11,2013-02-18 22:40:00,
2013-02-18 14:50:00,50.2,37.6,29.94,SSW,202,7.4,8.7,62,0.00,,,0.00,open2300-1.11,2013-02-18 22:50:00,
2013-02-18 15:00:00,49.8,37.3,29.94,SSE,157,5.4,9.6,62,0.00,,,0.00,open2300-1.11,2013-02-18 23:00:00,
2013-02-18 15:10:00,49.8,36.9,29.94,South,180,2.5,13.6,61,0.00,,,0.00,open2300-1.11,2013-02-18 23:10:00,
2013-02-18 15:20:00,49.8,36.9,29.93,South,180,8.5,9.2,61,0.00,,,0.00,open2300-1.11,2013-02-18 23:20:00,
2013-02-18 15:30:00,49.8,37.3,29.93,South,180,6.9,9.2,62,0.00,,,0.00,open2300-1.11,2013-02-18 23:30:00,
2013-02-18 15:40:00,49.6,37.1,29.93,SW,225,8.3,9.4,62,0.00,,,0.00,open2300-1.11,2013-02-18 23:40:00,
2013-02-18 15:50:00,49.3,36.8,29.93,South,180,0.0,11.0,62,0.00,,,0.00,open2300-1.11,2013-02-18 23:50:00,
2013-02-18 16:00:00,48.7,36.7,29.92,South,180,7.8,10.5,63,0.00,,,0.00,open2300-1.11,2013-02-19 00:00:00,
2013-02-18 16:10:00,48.0,36.0,29.92,South,180,1.8,10.7,63,0.00,,,0.00,open2300-1.11,2013-02-19 00:10:00,
2013-02-18 16:20:00,47.7,36.0,29.91,South,180,0.0,8.9,64,0.00,,,0.00,open2300-1.11,2013-02-19 00:20:00,
2013-02-18 16:30:00,47.7,36.4,29.91,SSW,202,3.6,7.6,65,0.00,,,0.00,open2300-1.11,2013-02-19 00:30:00,
2013-02-18 16:40:00,47.3,36.5,29.91,South,180,8.7,12.1,66,0.00,,,0.00,open2300-1.11,2013-02-19 00:40:00,
2013-02-18 16:50:00,47.1,36.3,29.90,South,180,0.0,10.3,66,0.00,,,0.00,open2300-1.11,2013-02-19 00:50:00,
2013-02-18 17:00:00,46.9,36.1,29.90,South,180,7.2,8.9,66,0.00,,,0.00,open2300-1.11,2013-02-19 01:00:00,
2013-02-18 17:10:00,46.6,36.2,29.89,SSW,202,5.1,9.6,67,0.00,,,0.00,open2300-1.11,2013-02-19 01:10:00,
2013-02-18 17:20:00,46.0,36.1,29.89,South,180,6.3,8.3,68,0.00,,,0.00,open2300-1.11,2013-02-19 01:20:00,
2013-02-18 17:30:00,45.1,35.2,29.88,South,180,0.0,6.3,68,0.00,,,0.00,open2300-1.11,2013-02-19 01:30:00,
2013-02-18 17:40:00,44.4,34.9,29.88,South,180,0.0,5.1,69,0.00,,,0.00,open2300-1.11,2013-02-19 01:40:00,
2013-02-18 17:50:00,43.5,34.5,29.87,SE,135,0.0,4.0,70,0.00,,,0.00,open2300-1.11,2013-02-19 01:50:00,
2013-02-18 18:00:00,43.0,34.3,29.87,SE,135,0.0,2.7,71,0.00,,,0.00,open2300-1.11,2013-02-19 02:00:00,
2013-02-18 18:10:00,42.1,33.4,29.87,SSE,157,0.0,0.0,71,0.00,,,0.00,open2300-1.11,2013-02-19 02:10:00,
2013-02-18 18:20:00,41.5,33.5,29.86,SSE,157,0.0,0.0,73,0.00,,,0.00,open2300-1.11,2013-02-19 02:20:00,
2013-02-18 18:40:00,40.8,33.1,29.86,SSE,157,0.0,0.0,74,0.00,,,0.00,open2300-1.11,2013-02-19 02:40:00,
2013-02-18 18:50:00,40.6,33.3,29.85,SSE,157,0.0,0.0,75,0.00,,,0.00,open2300-1.11,2013-02-19 02:50:00,
2013-02-18 19:00:00,40.6,33.6,29.85,ESE,112,0.0,0.0,76,0.00,,,0.00,open2300-1.11,2013-02-19 03:00:00,
2013-02-18 19:10:00,40.8,34.1,29.85,SSE,157,0.0,0.0,77,0.00,,,0.00,open2300-1.11,2013-02-19 03:10:00,
2013-02-18 19:20:00,40.8,34.1,29.84,SSE,157,0.0,0.0,77,0.00,,,0.00,open2300-1.11,2013-02-19 03:20:00,
2013-02-18 19:30:00,40.6,33.9,29.84,SSE,157,0.0,0.0,77,0.00,,,0.00,open2300-1.11,2013-02-19 03:30:00,
2013-02-18 19:40:00,40.8,34.4,29.84,SE,135,0.0,0.0,78,0.00,,,0.00,open2300-1.11,2013-02-19 03:40:00,
2013-02-18 19:50:00,40.8,34.4,29.84,SSE,157,0.0,0.0,78,0.00,,,0.00,open2300-1.11,2013-02-19 03:50:00,
2013-02-18 20:00:00,40.8,34.4,29.83,SSE,157,0.0,0.0,78,0.00,,,0.00,open2300-1.11,2013-02-19 04:00:00,
2013-02-18 20:10:00,40.8,34.4,29.83,SSE,157,0.0,0.0,78,0.00,,,0.00,open2300-1.11,2013-02-19 04:10:00,
2013-02-18 20:20:00,40.8,34.4,29.83,SSE,157,0.0,1.8,78,0.00,,,0.00,open2300-1.11,2013-02-19 04:20:00,
2013-02-18 20:30:00,41.0,34.6,29.82,SE,135,0.0,4.2,78,0.00,,,0.00,open2300-1.11,2013-02-19 04:30:00,
2013-02-18 20:40:00,41.0,34.9,29.81,SE,135,0.0,1.8,79,0.00,,,0.00,open2300-1.11,2013-02-19 04:40:00,
2013-02-18 20:50:00,41.0,34.6,29.81,SSE,157,0.0,0.0,78,0.00,,,0.00,open2300-1.11,2013-02-19 04:50:00,
2013-02-18 21:00:00,41.2,35.1,29.81,SE,135,0.0,4.0,79,0.00,,,0.00,open2300-1.11,2013-02-19 05:00:00,
2013-02-18 21:10:00,41.0,34.9,29.81,South,180,0.0,2.2,79,0.00,,,0.00,open2300-1.11,2013-02-19 05:10:00,
2013-02-18 21:20:00,41.0,34.9,29.80,SSE,157,0.0,8.3,79,0.00,,,0.00,open2300-1.11,2013-02-19 05:20:00,
2013-02-18 21:30:00,41.2,35.1,29.80,South,180,0.0,6.5,79,0.00,,,0.00,open2300-1.11,2013-02-19 05:30:00,
2013-02-18 21:40:00,41.4,35.3,29.80,SSE,157,0.0,6.5,79,0.00,,,0.00,open2300-1.11,2013-02-19 05:40:00,
2013-02-18 21:50:00,41.4,35.3,29.80,SSE,157,0.0,4.0,79,0.00,,,0.00,open2300-1.11,2013-02-19 05:50:00,
2013-02-18 22:00:00,41.2,35.4,29.79,ESE,112,0.0,5.1,80,0.00,,,0.00,open2300-1.11,2013-02-19 06:00:00,
2013-02-18 22:10:00,41.2,35.4,29.79,SE,135,3.1,6.5,80,0.00,,,0.00,open2300-1.11,2013-02-19 06:10:00,
2013-02-18 22:20:00,41.2,35.4,29.79,South,180,0.0,5.4,80,0.00,,,0.00,open2300-1.11,2013-02-19 06:20:00,
2013-02-18 22:30:00,41.4,35.6,29.79,SSE,157,0.0,7.6,80,0.00,,,0.00,open2300-1.11,2013-02-19 06:30:00,
2013-02-18 22:40:00,41.5,35.8,29.79,SE,135,0.0,6.5,80,0.00,,,0.00,open2300-1.11,2013-02-19 06:40:00,
2013-02-18 22:50:00,41.5,35.8,29.78,SSE,157,0.0,5.1,80,0.00,,,0.00,open2300-1.11,2013-02-19 06:50:00,
2013-02-18 23:10:00,41.4,35.6,29.78,SSW,202,0.0,4.0,80,0.02,,,0.02,open2300-1.11,2013-02-19 07:10:00,
2013-02-18 23:20:00,41.2,35.7,29.77,SE,135,4.9,13.9,81,0.06,,,0.06,open2300-1.11,2013-02-19 07:20:00,
2013-02-18 23:30:00,41.0,35.5,29.76,South,180,6.0,8.1,81,0.06,,,0.06,open2300-1.11,2013-02-19 07:30:00,
2013-02-18 23:40:00,40.8,35.4,29.76,SE,135,0.0,7.6,81,0.06,,,0.06,open2300-1.11,2013-02-19 07:40:00,
2013-02-18 23:50:00,40.6,35.5,29.75,SE,135,2.0,7.6,82,0.06,,,0.06,open2300-1.11,2013-02-19 07:50:00,